sat.trackr.live / text

‹ back to catalog

STARLINK-5863

NORAD 55922 · 2023-037J

PAYLOAD ACTIVE UNKNOWN

§ Identity

Operator
Country
US
Launch date
2023-03-17
Launch site
AFWTR
Launch vehicle
Mass (kg)
RCS (m²)

Purposes: comms

External: N2YO · Heavens-Above · Gunter

§ Orbital elements

Epoch: 2026-05-25T02:26:59.915904Z

Period
96.11 min
Inclination
69.9990°
Eccentricity
0.0003467
Mean motion
14.98329993 rev/d
Perigee alt
569.6 km
Apogee alt
574.5 km
Semi-major
6,950.2 km
B*
-5.0349e-6
RAAN
111.7700°
Arg perigee
266.2031°
Mean anomaly
93.8732°
Rev number
17,493

§ Raw data

STARLINK-58631 55922U 23037J   26145.10208236 -.00000153  00000+0 -50349-5 0  99942 55922  69.9990 111.7700 0003467 266.2031  93.8732 14.98329993174937

JSON: /api/v1/satellites/55922 · /tle

For live sub-satellite position, see the globe view (requires WebGL).

§ Visibility from observer

Set your observer location to see the next 7 days of passes ≥ 10°. The values pass through the URL so the page stays shareable.

No JS? Fill the form by hand. The geolocation button needs JavaScript.